Tracking 34408 objects as of 14-Jun-2026
HD Live streaming from Space Station
objects crossing your sky now

THORAD AGENA D DEB

Track THORAD AGENA D DEB now!
10-day predictions


NORAD ID: 42509
Int'l Code: 1970-025RP
Perigee: 965.4 km
Apogee: 1,152.3 km
Inclination: 100.1 °
Period: 106.2 minutes
Semi major axis: 7429 km
RCS: Unknown
Launch date: April 8, 1970
Source: United States (US)
Launch site: AIR FORCE WESTERN TEST RANGE (AFWTR)

Note: This is SATELLITE DEBRIS
Your satellite tracking list
Your tracking list is empty




NASA's NSSDC Master Catalog

Two Line Element Set (TLE):
1 42509U 70025RP  26162.07378088  .00000867  00000-0  12479-2 0  9998
2 42509 100.0567 294.8053 0125789 164.0461 196.4693 13.55613079619088
Source of the keplerian elements: AFSPC